DECAYED
Showing default

FLOCK 3S 1, 43769 (Decayed)

Orbit data source: Space-Track

FLOCK 3S 1, 43769 was a payload satellite owned by Planet (US) in LEO that was launched on Mon, 03 Dec 2018 UTC via an FALCON 9 launch vehicle from the Air Force Western Test Range (AFWTR). Payload-class satellites include a variety of spacecraft equipped with specific instruments for various scientific and technological missions. These include communications satellites like Starlink; space stations such as the ISS; scientific satellites like the Hubble; Earth observation satellites from companies like Planet Labs, Umbra, and HawkEye 360; GPS; miniature CubeSats for education and research; and military/defense satellites.

Not visible in the next 10 days
Identifier
43769, 2018-099M
Orbit
Decayed
Country
Flag of USUS
Related business
Manufacturer
Planet
Mission
Decayed Commercial Imaging
Bus & Motor
CUBESAT 3U, Unknown motor
Mass
4.7 kg wet, 4.7 kg dry
Launch date (UTC)
2018-12-03 (8 years ago)
Launch vehicle
FALCON 9
Launch site
Air Force Western Test Range (AFWTR)
Object type
Payload
Rocket body
Debris
Shape & HBR
Box + 2 Pan, 1.0 m
Radar Cross Section
0.108 m², Medium (>0.1 m² and < 1m²)

Expand to show TLE details & history
Last TLE update: 1 year ago

TLE from 1 year ago
0 FLOCK 3S 1
1 43769U 18099M   25166.04943847  .12747532  25575-5  43891-3 0  9993
2 43769  97.4056 235.2593 0017578 255.5499 104.3851 16.42650578358404
Epoch: 2025-06-15T01:11Z
TLE epoch observation values (Epoch: 2025-06-15T01:11:11.483Z)
Latitude
-0.00008°
Longitude
-46.11865°
Altitude
164.89 km
Speed
7.805 km/s
True Right ascension
15h 41m 02s
True Declination
0° 00' 00"
Sunlit
Object was in full shadow at epoch
Visualization orbit readout
Latitude
Unknown
Longitude
Unknown
Altitude
Unknown
Speed
Unknown
Apparent Right ascension
Unknown
Apparent Declination
Unknown
Sunlit
N/A
Visualization observer readout
Local Sidereal Time
02:17:09
Azimuth
Unknown
Elevation
Unknown
Doppler factor
Unknown
Orbital elements
Apogee altitude
167.05 km
Perigee altitude
144.081 km
Semi-major axis
6,533.702 km
Eccentricity
0.00176
Inclination
97.4056°
RAAN
235.2593°
Arg. of periapsis
255.5499°
True anomaly
104.58011°
Mean anomaly
104.3851°
Eccentric anomaly
104.48261°
Mean motion
4.10964 °/min
Orbital period
87.6 mins
BSTAR
0.00043891
Loading maneuver chart data...
Computing Atmospheric mass density...
Loading historical data...
Loading historical data...
Loading historical data...
Loading historical data...
Loading historical data...
Loading historical data...
Loading historical data...

Documentation

Showing up to 5 results
|